065  
ASUS44 KMOB 250112  
RWRMOB  
REGIONAL WEATHER ROUNDUP  
NATIONAL WEATHER SERVICE MOBILE AL  
800 PM CDT THU MAY 24 2018  
 
NOTE: "FAIR" INDICATES FEW OR NO CLOUDS BELOW 12,000 FEET WITH NO  
SIGNIFICANT WEATHER AND/OR S TO VISIBILITY
.  
 
* THESE STATIONS ARE PART OF THE UNIVERSITY OF SOUTH ALABAMA  
MESONET AND ARE NOT UNDER NWS OR FAA QUALITY CONTROL.
 
 
ALZ061>064-250200-  
COASTAL ALABAMA  
 
CITY SKY/WX TMP DP RH WIND PRES REMARKS
 
MOBILE REG APT MOCLDY 76 70 82 N12 30.07R  
BROOKLEY FIELD CLOUDY 80 74 81 N10 30.06R  
USA CAMPUS* NOT AVBL  
DOG RIVER* NOT AVBL  
 
 
CITY SKY/WX TMP DP RH WIND PRES REMARKS
 
GULF SHORES FAIR 79 73 81 CALM 30.04R  
 

 
 
ALZ051>060-250200-  
INTERIOR SOUTHWEST AND SOUTH CENTRAL ALABAMA  
 
CITY SKY/WX TMP DP RH WIND PRES REMARKS
 
GREENVILLE FAIR 73 69 87 CALM 30.03R  
EVERGREEN FAIR 74 70 87 S5 30.06R  
ATMORE* NOT AVBL  
ANDALUSIA/OPP FAIR 78 71 79 CALM 30.04R  
ANDALUSIA* N/A 75 72 88 SE2 30.05R  
FLORALA APT TSTM 73 69 87 S3 30.06R  
FLORALA* N/A 72 70 94 CALM 30.76R  
 

 
 
FLZ001>006-250200-  
WESTERN FLORIDA PANHANDLE  
 
CITY SKY/WX TMP DP RH WIND PRES REMARKS
 
PENSACOLA CLOUDY 78 66 66 N10 30.05R  
NAS PENSACOLA MOCLDY 77 72 84 CALM 30.03R  
MILTON TSTM 70 69 97 VRB7 30.08R VSB 3/4  
WHTNG S FIELD TSTM 69 69 100 CALM 30.08R VSB 1  
 
 
CITY SKY/WX TMP DP RH WIND PRES REMARKS
 
JAY* NOT AVBL  
DUKE FIELD LGT RAIN 71 68 90 SW6 30.04R  
CRESTVIEW TSTM 71 69 93 SW5 30.06R  
VALPARAISO NOT AVBL  
DESTIN CLOUDY 82 73 74 SW3 30.04R THUNDER  
 

 
 
MSZ076-079-250200-  
INTERIOR SOUTHEAST MISSISSIPPI  
 
CITY SKY/WX TMP DP RH WIND PRES REMARKS
 
LEAKESVILLE* NOT AVBL  
AGRICOLA* N/A 72 70 94 CALM 30.06R  
 

 
 
MARINE OBSERVATIONS  
 
STATION/POSITION TIME TEMP WIND PRES WAVE
 
AIR SEA DIR/SP/G HT/PER  
(UTC) (F) (DEG/KT/KT) (MB) (FT/S)  
PETIT BOIS ISLND 0048 82 240/ 6/ 7 1017.7R  
GRAND BAY 2330 83 240/ 7 1017.0S  
KATRINA CUT 0030 82 240/ 9 1016.9R  
CEDAR POINT 0030 83 230/ 9 1016.6R  
E DAUPHIN ISLAND 0000 82 220/ 9/ 12 1015.9R  
MIDDLE BAY LIGHT 0030 83 240/ 11 1016.9R  
USCG MOBILE BAY 0042 78 83 360/ 7/ 10 1017.6R  
STATE DOCKS 0042 80 83 1017.5R  
MEAHER PARK 0030 82 240/ 4 1017.3R  
WEEKS BAY 2330 82 1016.0S  
FORT MORGAN 0048 82 250/ 9/ 10 N/A  
12 S ORANGE BCH 0050 82 210/ 8/ 10 1016.8R 2/ 8  
PENSACOLA BAY 0042 82 85 250/ 4/ 10 1017.3R  
64 S DAUPHIN ISL 0050 85 190/ 6/ 8 1017.1R 2/ 7  
67 S FORT MORGAN 0030 79 1016.9R  
 

 
 
SELECTED LOCATIONS ACROSS THE REGION  
 
CITY SKY/WX TMP DP RH WIND PRES REMARKS
 
NEW ORLEANS MOCLDY 79 75 87 NW5 30.02R  
GULFPORT FAIR 75 69 81 W8 30.03R  
PASCAGOULA AP FAIR 74 70 87 MISG 30.04R  
PASCAGOULA* N/A 79 73 83 CALM 30.02  
HATTIESBURG MOCLDY 73 71 93 SW3 30.05F  
LAUREL LGT RAIN 72 70 93 SE9 30.05F  
MERIDIAN FAIR 80 70 71 SE6 30.03R  
JACKSON MOCLDY 80 71 74 SE9 30.02R  
MONTGOMERY N/A 74 72 93 CALM 30.02R  
TROY FAIR 74 72 93 CALM 30.04R  
ASHFORD* N/A 75 72 88 SE2 30.05R  
DOTHAN LGT RAIN 72 69 90 SW6 30.07R  
PANAMA CITY FAIR 78 72 81 CALM 30.04R  
 

 
 
 
 
CLICK HERE TO GO TO PREVIOUS BULLETINS.

The Nexlab AL Page
The Nexlab FL Page
The Nexlab MS Page Main Text Page